TimeEST,TemperatureF,Dew PointF,Humidity,Sea Level PressureIn,VisibilityMPH,Wind Direction,Wind SpeedMPH,Gust SpeedMPH,PrecipitationIn,Events,Conditions,WindDirDegrees,DateUTC
12:54 AM,55.9,53.1,90,30.25,6.0,WSW,8.1,-,N/A,,Partly Cloudy,240,2013-01-29 05:54:00
1:31 AM,55.4,53.6,94,30.25,5.0,WSW,8.1,-,N/A,,Overcast,250,2013-01-29 06:31:00
1:54 AM,55.9,54.0,93,30.24,5.0,WSW,9.2,-,N/A,,Overcast,250,2013-01-29 06:54:00
2:54 AM,54.0,53.1,97,30.23,4.0,WSW,4.6,-,N/A,,Overcast,240,2013-01-29 07:54:00
3:54 AM,53.1,50.0,89,30.22,5.0,WSW,5.8,-,N/A,,Scattered Clouds,250,2013-01-29 08:54:00
4:54 AM,54.0,51.1,90,30.22,6.0,West,6.9,-,N/A,,Partly Cloudy,270,2013-01-29 09:54:00
5:54 AM,53.1,48.9,86,30.22,5.0,WSW,9.2,-,N/A,,Clear,240,2013-01-29 10:54:00
6:54 AM,52.0,48.0,86,30.22,6.0,West,9.2,-,N/A,,Clear,260,2013-01-29 11:54:00
7:54 AM,54.0,48.9,83,30.23,6.0,West,10.4,-,N/A,,Partly Cloudy,260,2013-01-29 12:54:00
8:54 AM,57.0,51.1,81,30.23,6.0,West,12.7,-,N/A,,Partly Cloudy,270,2013-01-29 13:54:00
9:54 AM,62.1,53.1,72,30.23,8.0,West,11.5,-,N/A,,Partly Cloudy,260,2013-01-29 14:54:00
10:54 AM,66.9,55.0,66,30.22,9.0,West,15.0,-,N/A,,Clear,260,2013-01-29 15:54:00
11:54 AM,71.1,55.9,59,30.19,10.0,WSW,13.8,-,N/A,,Clear,250,2013-01-29 16:54:00
12:54 PM,73.9,55.9,53,30.16,10.0,West,17.3,-,N/A,,Clear,270,2013-01-29 17:54:00
1:54 PM,73.9,55.0,52,30.14,10.0,West,13.8,-,N/A,,Scattered Clouds,260,2013-01-29 18:54:00
2:54 PM,73.9,54.0,50,30.13,10.0,West,12.7,-,N/A,,Mostly Cloudy,260,2013-01-29 19:54:00
3:54 PM,73.0,55.9,55,30.14,10.0,SSW,6.9,-,N/A,,Scattered Clouds,200,2013-01-29 20:54:00
4:54 PM,68.0,57.0,68,30.14,10.0,South,6.9,-,N/A,,Scattered Clouds,190,2013-01-29 21:54:00
5:54 PM,64.0,55.9,75,30.14,10.0,SSW,8.1,-,N/A,,Scattered Clouds,200,2013-01-29 22:54:00
6:54 PM,60.1,55.0,83,30.15,9.0,South,5.8,-,N/A,,Clear,190,2013-01-29 23:54:00
7:54 PM,60.1,55.9,86,30.15,8.0,South,8.1,-,N/A,,Clear,190,2013-01-30 00:54:00
8:54 PM,59.0,55.9,90,30.15,6.0,South,6.9,-,N/A,,Clear,190,2013-01-30 01:54:00
9:42 PM,59.0,57.2,94,30.16,4.0,South,5.8,-,N/A,,Mostly Cloudy,190,2013-01-30 02:42:00
9:54 PM,59.0,57.0,93,30.16,4.0,South,8.1,-,N/A,,Mostly Cloudy,190,2013-01-30 02:54:00
10:54 PM,61.0,57.9,90,30.16,5.0,SSW,8.1,-,N/A,,Mostly Cloudy,210,2013-01-30 03:54:00
11:54 PM,61.0,59.0,93,30.15,7.0,SSW,5.8,-,N/A,,Mostly Cloudy,210,2013-01-30 04:54:00